When you browse on this site, cookies collect data to enhance your experience and personalize the content and advertising you see.
Visit our Privacy Policy to learn more. By continuing to use the site, you agree to this use of cookies and data.
  • In United Kingdom
  • List of Countries
  • For 7 days
  • Water Temperature
  • Weather Map
  • Weather Widgets
  • user-avatar
    Login

    Hourly Weather Stevenage

    Today, 27 May, Wednesday

    Time Temperature Precipitation Wind Pressure Humidity
    00:00 +14°C° 0 mm 2 mps 766 mmHg 86%
    01:00 +14°C° 0 mm 1 mps 766 mmHg 85%
    02:00 +14°C° 0 mm 1 mps 766 mmHg 83%
    03:00 +13°C° 0 mm 1 mps 766 mmHg 82%
    04:00 +14°C° 0 mm 1 mps 766 mmHg 82%
    05:00 +14°C° 0 mm 1 mps 766 mmHg 81%
    06:00 +15°C° 0 mm 1 mps 766 mmHg 80%
    07:00 +16°C° 0 mm 1 mps 767 mmHg 77%
    08:00 +18°C° 0 mm 1 mps 767 mmHg 75%
    09:00 +20°C° 0 mm 1 mps 767 mmHg 72%
    10:00 +20°C° 0.1 mm 1 mps 767 mmHg 71%
    11:00 +21°C° 0.1 mm 1 mps 767 mmHg 70%
    12:00 +21°C° 0.1 mm 2 mps 767 mmHg 69%
    13:00 +21°C° 0.1 mm 2 mps 767 mmHg 70%
    14:00 +21°C° 0.1 mm 2 mps 766 mmHg 70%
    15:00 +21°C° 0.1 mm 3 mps 766 mmHg 70%
    16:00 +20°C° 0.1 mm 3 mps 766 mmHg 72%
    17:00 +20°C° 0.1 mm 3 mps 766 mmHg 74%
    18:00 +19°C° 0.1 mm 3 mps 766 mmHg 77%
    19:00 +17°C° 0 mm 3 mps 766 mmHg 79%
    20:00 +14°C° 0 mm 3 mps 767 mmHg 82%
    21:00 +12°C° 0 mm 3 mps 767 mmHg 84%
    22:00 +11°C° 0 mm 3 mps 767 mmHg 84%
    23:00 +10°C° 0 mm 2 mps 767 mmHg 84%

    Tomorrow, 28 May, Thursday

    Time Temperature Precipitation Wind Pressure Humidity
    00:00 +10°C° 0 mm 2 mps 767 mmHg 84%
    01:00 +9°C° 0 mm 2 mps 767 mmHg 86%
    02:00 +9°C° 0 mm 2 mps 766 mmHg 87%
    03:00 +8°C° 0 mm 2 mps 766 mmHg 89%
    04:00 +9°C° 0 mm 2 mps 766 mmHg 86%
    05:00 +10°C° 0 mm 2 mps 766 mmHg 84%
    06:00 +12°C° 0 mm 2 mps 766 mmHg 82%
    07:00 +13°C° 0 mm 2 mps 766 mmHg 75%
    08:00 +14°C° 0 mm 3 mps 766 mmHg 68%
    09:00 +16°C° 0 mm 3 mps 766 mmHg 62%
    10:00 +17°C° 0 mm 3 mps 766 mmHg 59%
    11:00 +18°C° 0 mm 3 mps 765 mmHg 56%
    12:00 +19°C° 0 mm 3 mps 765 mmHg 52%
    13:00 +19°C° 0 mm 3 mps 765 mmHg 53%
    14:00 +19°C° 0 mm 3 mps 764 mmHg 54%
    15:00 +19°C° 0 mm 3 mps 764 mmHg 55%
    16:00 +18°C° 0 mm 3 mps 764 mmHg 59%
    17:00 +17°C° 0 mm 3 mps 763 mmHg 63%
    18:00 +17°C° 0 mm 3 mps 763 mmHg 66%
    19:00 +14°C° 0 mm 3 mps 763 mmHg 69%
    20:00 +12°C° 0 mm 3 mps 763 mmHg 71%
    21:00 +10°C° 0 mm 3 mps 763 mmHg 73%
    22:00 +9°C° 0 mm 2 mps 763 mmHg 74%
    23:00 +9°C° 0 mm 2 mps 763 mmHg 74%

    Day after tomorrow, 29 May, Friday

    Time Temperature Precipitation Wind Pressure Humidity
    00:00 +8°C° 0 mm 2 mps 763 mmHg 75%
    01:00 +8°C° 0 mm 2 mps 762 mmHg 77%
    02:00 +8°C° 0 mm 2 mps 762 mmHg 78%
    03:00 +7°C° 0 mm 2 mps 762 mmHg 80%
    04:00 +8°C° 0 mm 2 mps 762 mmHg 79%
    05:00 +10°C° 0 mm 2 mps 762 mmHg 77%
    06:00 +12°C° 0 mm 2 mps 762 mmHg 76%
    07:00 +14°C° 0 mm 2 mps 762 mmHg 71%
    08:00 +14°C° 0 mm 3 mps 762 mmHg 66%
    09:00 +17°C° 0 mm 3 mps 762 mmHg 61%
    10:00 +18°C° 0 mm 3 mps 761 mmHg 59%
    11:00 +19°C° 0 mm 4 mps 761 mmHg 58%
    12:00 +20°C° 0 mm 4 mps 761 mmHg 56%
    13:00 +20°C° 0 mm 4 mps 761 mmHg 56%
    14:00 +20°C° 0 mm 4 mps 760 mmHg 57%
    15:00 +20°C° 0 mm 4 mps 760 mmHg 57%
    16:00 +19°C° 0 mm 4 mps 759 mmHg 61%
    17:00 +18°C° 0 mm 4 mps 759 mmHg 65%
    18:00 +17°C° 0 mm 3 mps 759 mmHg 68%
    19:00 +14°C° 0 mm 3 mps 759 mmHg 73%
    20:00 +12°C° 0 mm 3 mps 759 mmHg 77%
    21:00 +10°C° 0 mm 3 mps 759 mmHg 81%
    22:00 +9°C° 0 mm 3 mps 759 mmHg 82%
    23:00 +8°C° 0 mm 2 mps 759 mmHg 83%

    30 May, Saturday

    Time Temperature Precipitation Wind Pressure Humidity
    00:00 +8°C° 0 mm 2 mps 759 mmHg 84%
    01:00 +8°C° 0 mm 2 mps 759 mmHg 86%
    02:00 +7°C° 0 mm 2 mps 759 mmHg 87%
    03:00 +7°C° 0 mm 2 mps 759 mmHg 89%
    04:00 +8°C° 0 mm 2 mps 759 mmHg 87%
    05:00 +9°C° 0 mm 2 mps 759 mmHg 86%
    06:00 +12°C° 0 mm 2 mps 759 mmHg 84%
    07:00 +14°C° 0 mm 2 mps 759 mmHg 78%
    08:00 +16°C° 0 mm 3 mps 759 mmHg 72%
    09:00 +18°C° 0 mm 3 mps 759 mmHg 66%
    10:00 +19°C° 0 mm 3 mps 759 mmHg 63%
    11:00 +20°C° 0 mm 3 mps 759 mmHg 60%
    12:00 +21°C° 0 mm 4 mps 759 mmHg 57%
    13:00 +21°C° 0 mm 4 mps 758 mmHg 57%
    14:00 +21°C° 0 mm 4 mps 758 mmHg 57%
    15:00 +21°C° 0 mm 4 mps 758 mmHg 57%
    16:00 +20°C° 0 mm 3 mps 758 mmHg 60%
    17:00 +19°C° 0 mm 3 mps 758 mmHg 64%
    18:00 +18°C° 0 mm 3 mps 758 mmHg 68%
    19:00 +16°C° 0 mm 3 mps 758 mmHg 73%
    20:00 +13°C° 0 mm 3 mps 758 mmHg 78%
    21:00 +11°C° 0 mm 3 mps 758 mmHg 83%
    22:00 +10°C° 0 mm 3 mps 758 mmHg 86%
    23:00 +9°C° 0 mm 2 mps 758 mmHg 89%

    31 May, Sunday

    Time Temperature Precipitation Wind Pressure Humidity
    00:00 +9°C° 0 mm 2 mps 758 mmHg 91%
    01:00 +8°C° 0 mm 2 mps 758 mmHg 91%
    02:00 +8°C° 0 mm 2 mps 758 mmHg 91%
    03:00 +7°C° 0 mm 2 mps 757 mmHg 91%
    04:00 +8°C° 0 mm 2 mps 758 mmHg 89%
    05:00 +9°C° 0 mm 2 mps 758 mmHg 87%
    06:00 +10°C° 0 mm 3 mps 758 mmHg 85%
    07:00 +12°C° 0 mm 3 mps 758 mmHg 79%
    08:00 +14°C° 0 mm 3 mps 758 mmHg 73%
    09:00 +17°C° 0 mm 3 mps 758 mmHg 67%
    10:00 +18°C° 0 mm 3 mps 758 mmHg 64%
    11:00 +19°C° 0 mm 3 mps 757 mmHg 60%
    12:00 +20°C° 0 mm 3 mps 757 mmHg 57%
    13:00 +20°C° 0 mm 3 mps 757 mmHg 58%
    14:00 +20°C° 0 mm 3 mps 757 mmHg 59%
    15:00 +20°C° 0 mm 3 mps 757 mmHg 60%
    16:00 +19°C° 0 mm 3 mps 756 mmHg 65%
    17:00 +19°C° 0 mm 3 mps 756 mmHg 69%
    18:00 +18°C° 0 mm 3 mps 756 mmHg 73%
    19:00 +16°C° 0 mm 3 mps 756 mmHg 79%
    20:00 +13°C° 0 mm 3 mps 756 mmHg 85%
    21:00 +12°C° 0 mm 3 mps 756 mmHg 90%
    22:00 +12°C° 0 mm 2 mps 756 mmHg 91%
    23:00 +10°C° 0 mm 2 mps 756 mmHg 91%

    1 June, Monday

    Time Temperature Precipitation Wind Pressure Humidity
    00:00 +9°C° 0 mm 2 mps 756 mmHg 91%
    01:00 +9°C° 0 mm 2 mps 756 mmHg 91%
    02:00 +8°C° 0 mm 2 mps 755 mmHg 91%
    03:00 +8°C° 0 mm 2 mps 755 mmHg 91%
    04:00 +8°C° 0 mm 2 mps 755 mmHg 89%
    05:00 +9°C° 0 mm 2 mps 755 mmHg 87%
    06:00 +10°C° 0 mm 2 mps 755 mmHg 84%
    07:00 +13°C° 0 mm 2 mps 755 mmHg 79%
    08:00 +14°C° 0 mm 3 mps 755 mmHg 73%
    09:00 +17°C° 0 mm 3 mps 755 mmHg 67%
    10:00 +18°C° 0 mm 3 mps 755 mmHg 65%
    11:00 +18°C° 0 mm 3 mps 754 mmHg 64%
    12:00 +19°C° 0 mm 3 mps 754 mmHg 63%
    13:00 +19°C° 0 mm 3 mps 754 mmHg 64%
    14:00 +19°C° 0 mm 3 mps 754 mmHg 65%
    15:00 +19°C° 0 mm 2 mps 753 mmHg 67%
    16:00 +19°C° 0 mm 3 mps 753 mmHg 69%
    17:00 +18°C° 0 mm 3 mps 753 mmHg 72%
    18:00 +18°C° 0 mm 3 mps 753 mmHg 75%
    19:00 +16°C° 0 mm 3 mps 753 mmHg 81%
    20:00 +14°C° 0 mm 2 mps 753 mmHg 87%
    21:00 +13°C° 0 mm 2 mps 753 mmHg 92%
    22:00 +12°C° 0 mm 2 mps 753 mmHg 93%
    23:00 +10°C° 0 mm 2 mps 753 mmHg 93%
    Show more